OCEANSAT-2

Last updated on Sat Aug 15 2026 00:02:45 GMT+0000 (Coordinated Universal Time)

1 35931U 09051A 26226.60360581 .00000151 00000+0 12856-3 0 9994 2 35931 98.2389 207.6304 0017971 70.2542 290.0561 13.99672077887501
UTC large
Height (km)
Speed (km/s)
/
Latitude / Longitude
Inclination (degrees)
Orbital Period (minutes)
Azimuth
Elevation
Range (km)
Doppler Factor

Next 0 passes for location: London (51.5072 / 0.1276)

No passes found over London.
OCEANSAT-2